Simultaneous Nadir Overpasses (SNOs) Predictions

Prediction of SNOs between GOES-17 and NOAA-20 Satellite Orbit:

Table of predicted SNOs for the next 14.0 days since TLE Epoch: 9/24/2022
Index Date Time (GOES-17) GOES-17 Lat,Lon NOAA-20 Lat,Lon Distance(km) Time Diff (sec)
1 09/24/2022 10:21:00 0.05,-137.33 -0.76,-133.81 401.20 80
2 09/25/2022 22:40:16 -0.04,-137.33 -0.47,-139.11 203.86 80
3 09/26/2022 22:24:11 -0.05,-137.33 0.54,-134.58 312.28 80
4 09/28/2022 10:43:20 0.04,-137.32 0.62,-139.86 289.23 80
5 09/29/2022 10:27:15 0.05,-137.32 -0.39,-135.33 226.26 80
6 09/30/2022 22:46:32 -0.04,-137.30 -0.77,-140.64 380.58 80
7 10/01/2022 22:30:28 -0.04,-137.29 0.24,-136.11 134.19 80
8 10/03/2022 10:49:35 0.03,-137.26 0.97,-141.38 469.35 80
9 10/04/2022 10:33:31 0.03,-137.24 -0.04,-136.85 44.95 80
10 10/06/2022 22:34:04 -0.02,-137.20 -0.10,-137.63 49.09 80
11 10/07/2022 22:17:59 -0.02,-137.18 0.91,-133.10 465.22 80
